星链-1106 (STARLINK-1106 )

导读 | 星芒AI

STARLINK-1106 是 SpaceX Starlink 项目中的一颗低轨通信卫星,属于第 11 批部署的 Starlink 卫星群。该卫星于 2020 年 11 月发射,旨在为全球用户提供高速互联网服务。它运行在约 550 公里的近地轨道,配备先进的相控阵天线和激光通信系统,以实现高效的数据传输和卫星间通信。STARLINK-1106 采用可再生推进系统,具备自主变轨和避碰能力,有助于降低太空碎片风险。作为 Starlink 星座的重要组成部分,它提升了全球互联网覆盖能力,特别是在偏远和网络基础设施薄弱的地区。

基本信息
目录编号:
44923
目录名称:
STARLINK-1106
国际标识:
2020-001K
轨道中心:
EARTH
卫星名称:
星链-1106
卫星全名:
星链-1106 (STARLINK-1106 )
卫星状态:
已陨落 最后检测时间 2025-05-04
发射日期:
2020-01-07 UTC
国别 :
美国 (US)
星等 :
--
轨道信息
数据来源 国际轨道数据
星历时间: 2025-05-04T09:52:23+0800
轨道信息已过期223天
半长轴: 6560.902km
偏心率: 0.0007798
轨道倾角: 52.979°
近地点辐角 229.743°
升交点赤经 139.553°
平近点角 169.894°
近地点: 177.65km
远地点: 187.884km
周期: 88.146分钟
每日圈数: 16.336441
详细信息
固有亮度:
5
最大亮度:
2.5
卫星平台:
Starlink V1.0
覆盖范围:
全球
运营商:
太空探索技术公司
运营商所在国:
美国
制造商(研发单位):
太空探索技术公司
制造商所在国:
美国
使用方式:
暂无
卫星简介
星链(Starlink)计划是由太空探索技术公司(SpaceX)提出的一个巨型低轨卫星互联网星座项目,计划在2019年至2024年间在太空搭建由约1.2万颗卫星组成的“星链”网络,其中1584颗将部署在地球上空550千米处的近地轨道,并从2020年开始工作。该卫星仍在工作。